Location: Oshawa
(43.9000°N, 78.8670°W)
Time: 09:57:52
(UTC-04:00)

Iridium 98 - Visible Passes

Search period start: 29 April 2016 00:00
Search period end: 09 May 2016 00:00
Orbit: 776 x 779 km, 86.4° (Epoch: 28 April)

Date Brightness Start Highest point End Pass type
(mag) Time Alt. Az. Time Alt. Az. Time Alt. Az.
29 Apr 6.9 00:50:26 32° WNW 00:50:26 32° WNW 00:54:39 10° NNW visible
29 Apr 7.2 22:36:20 18° ENE 22:36:20 18° ENE 22:39:30 10° NE visible
30 Apr 6.0 00:16:47 55° WNW 00:16:47 55° WNW 00:21:27 10° N visible
30 Apr 5.5 23:43:07 74° NE 23:43:07 74° NE 23:47:58 10° N visible
01 May 7.9 01:23:34 13° WNW 01:24:08 13° WNW 01:26:35 10° NW visible
01 May 6.0 23:09:27 44° E 23:09:27 44° E 23:14:15 10° NNE visible
02 May 7.2 00:49:54 23° W 00:50:14 23° WNW 00:54:21 10° NNW visible
02 May 6.7 22:35:45 25° E 22:36:00 25° E 22:40:11 10° NNE visible
03 May 6.4 00:16:12 40° W 00:16:28 40° W 00:21:23 10° N visible
03 May 7.3 22:02:03 14° E 22:02:49 14° ENE 22:05:28 10° NE visible
03 May 5.5 23:42:31 70° WSW 23:42:50 73° W 23:48:04 10° N visible
04 May 5.5 23:08:48 59° ESE 23:09:20 63° E 23:14:30 10° N visible
05 May 7.7 00:49:15 15° W 00:50:33 17° WNW 00:53:50 10° NNW visible
05 May 6.2 22:35:04 33° ESE 22:35:57 35° E 22:40:39 10° NNE visible
06 May 7.0 00:15:31 26° W 00:16:42 29° WNW 00:21:12 10° NNW visible
06 May 7.0 22:01:21 18° E 22:02:42 20° E 22:06:24 10° NNE visible
06 May 6.1 23:41:47 42° SW 23:42:59 51° W 23:48:05 10° N visible
07 May 7.5 21:28:12 10° E 21:29:33 11° ENE 21:30:55 10° ENE visible
07 May 5.4 23:08:02 51° S 23:09:25 89° ENE 23:14:39 10° N visible
08 May 8.1 00:49:09 10° W 00:50:54 12° WNW 00:52:39 10° NW visible
08 May 5.8 22:34:16 36° SE 22:35:57 50° E 22:40:59 10° NNE visible
